Weather History for KMEM - June, 2012

Change the Weather History Date:

Monday, June 18, 2012

  Actual Average Record
Temperature  
Mean Temperature 81 °F 80 °F  
Max Temperature 92 °F 90 °F 103 °F (1953)
Min Temperature 69 °F 71 °F 56 °F (1961)
Degree Days  
Heating Degree Days 0 0  
Month to date heating degree days 0 0  
Since 1 June heating degree days 0 0  
Since 1 July heating degree days 2171 2964  
Cooling Degree Days 16 15  
Month to date cooling degree days 220 242  
Year to date cooling degree days 800 563  
Since 1 June cooling degree days 220 242  
Growing Degree Days 30 (Base 50)    
Moisture  
Dew Point 65 °F    
Average Humidity 61    
Maximum Humidity 84    
Minimum Humidity 38    
Precipitation  
Precipitation 0.00 in 0.12 in 2.80 in (1996)
Month to date precipitation 1.38 2.27  
Year to date precipitation 14.70 26.55  
Snow  
Snow 0.00 in 0.00 in - ()
Month to date snowfall 0.0 0.0  
Since 1 June snowfall 0.0 0.0  
Since 1 July snowfall 1.4 3.8  
Snow Depth 0.00 in    
Sea Level Pressure  
Sea Level Pressure 29.94 in    
Wind  
Wind Speed 10 mph (SSW)    
Max Wind Speed 21 mph    
Max Gust Speed 25 mph    
Visibility 10 miles    
Events      
T = Trace of Precipitation, MM = Missing Value Source: NWS Daily Summary

Daily Weather History Graph

Daily Weather History Graph

Search for Another Location

Airport or City:

Trip Planner

Search our weather history database for the weather conditions in past years. The results will help you decide how hot, cold, wet, or windy it might be!

Date:

Astronomy

Jun. 18, 2012 Rise Set
Actual Time 5:45 AM CDT 8:16 PM CDT
Civil Twilight 5:15 AM CDT 8:46 PM CDT
Nautical Twilight 4:39 AM CDT 9:23 PM CDT
Astronomical Twilight 3:58 AM CDT 10:04 PM CDT
Moon 4:58 AM CDT (6/18) 7:36 PM CDT (6/18)
Length of Visible Light 15h 30m
Length of Day
14h 31m
Waning Crescent, 1% of the Moon is Illuminated
Jun 18
Waning Crescent
Jun 19
New
Jun 26
First Quarter
Jul 3
Full
Jul 10
Last Quarter

Hourly Weather History & Observations

Time (CDT) Temp. Heat Index Dew Point Humidity Pressure Visibility Wind Dir Wind Speed Gust Speed Precip Events Conditions
12:54 AM 73.0 °F - 64.0 °F 73% 29.91 in 10.0 mi South 5.8 mph - N/A   Clear
1:54 AM 73.0 °F - 63.0 °F 71% 29.90 in 10.0 mi South 5.8 mph - N/A   Clear
2:54 AM 72.0 °F - 63.0 °F 73% 29.89 in 10.0 mi South 6.9 mph - N/A   Clear
3:54 AM 71.1 °F - 63.0 °F 75% 29.91 in 10.0 mi South 5.8 mph - N/A   Clear
4:54 AM 69.1 °F - 63.0 °F 81% 29.91 in 10.0 mi South 5.8 mph - N/A   Clear
5:54 AM 70.0 °F - 64.0 °F 81% 29.92 in 10.0 mi South 8.1 mph - N/A   Clear
6:54 AM 73.0 °F - 66.0 °F 79% 29.95 in 10.0 mi SSW 9.2 mph - N/A   Partly Cloudy
7:54 AM 75.9 °F - 66.9 °F 74% 29.96 in 10.0 mi SSW 9.2 mph - N/A   Partly Cloudy
8:54 AM 79.0 °F - 69.1 °F 72% 29.97 in 10.0 mi SSW 9.2 mph - N/A   Partly Cloudy
9:54 AM 82.9 °F 87.0 °F 70.0 °F 65% 29.97 in 10.0 mi South 12.7 mph - N/A   Scattered Clouds
10:54 AM 84.9 °F 89.4 °F 70.0 °F 61% 29.97 in 10.0 mi SSW 6.9 mph - N/A   Scattered Clouds
11:54 AM 87.1 °F 90.6 °F 68.0 °F 53% 29.96 in 10.0 mi South 12.7 mph 20.7 mph N/A   Scattered Clouds
12:54 PM 89.1 °F 91.3 °F 66.0 °F 46% 29.97 in 10.0 mi SSW 13.8 mph 21.9 mph N/A   Scattered Clouds
1:54 PM 90.0 °F 92.4 °F 66.0 °F 45% 29.95 in 10.0 mi SW 15.0 mph 19.6 mph N/A   Scattered Clouds
2:54 PM 90.0 °F 91.3 °F 64.0 °F 42% 29.94 in 10.0 mi SW 17.3 mph 24.2 mph N/A   Scattered Clouds
3:54 PM 91.0 °F 91.9 °F 63.0 °F 39% 29.93 in 10.0 mi SW 11.5 mph 19.6 mph N/A   Scattered Clouds
4:54 PM 90.0 °F 90.6 °F 63.0 °F 40% 29.92 in 10.0 mi South 13.8 mph 25.3 mph N/A   Scattered Clouds
5:54 PM 90.0 °F 90.6 °F 63.0 °F 40% 29.92 in 10.0 mi SSW 13.8 mph 23.0 mph N/A   Scattered Clouds
6:54 PM 88.0 °F 88.7 °F 63.0 °F 43% 29.92 in 10.0 mi SSW 11.5 mph - N/A   Scattered Clouds
7:54 PM 84.9 °F 86.1 °F 64.0 °F 49% 29.93 in 10.0 mi SSW 6.9 mph - N/A   Partly Cloudy
8:54 PM 82.0 °F 83.1 °F 63.0 °F 52% 29.93 in 10.0 mi South 6.9 mph - N/A   Clear
9:54 PM 80.1 °F 81.7 °F 64.0 °F 58% 29.95 in 10.0 mi South 5.8 mph - N/A   Clear
10:54 PM 80.1 °F 81.7 °F 64.0 °F 58% 29.97 in 10.0 mi South 5.8 mph - N/A   Clear
11:54 PM 80.1 °F 81.7 °F 64.0 °F 58% 29.97 in 10.0 mi SSE 8.1 mph - N/A   Clear